Location: Unspecified
(0.0000°N, 0.0000°E)
Time: 16:49:51
(UTC+00:00)

ARIANE 2 DEB - Pass Details

Date: 08 March 2026
Orbit: 794 x 35760 km, 8.3° (Epoch: 17 April)

Event Time Altitude Azimuth Distance (km) Brightness Sun altitude
Rises 15:33:59 0° 263° (W) 16,506 ? 39.0°
Reaches altitude 10° 15:49:58 10° 263° (W) 18,937 ? 35.1°
Maximum altitude 17:11:41 24° 267° (W) 30,158 ? 14.7°
Drops below altitude 10° 19:56:23 10° 271° (W) 40,544 ? -26.3°
Sets 21:20:42 0° 273° (W) 39,876 ? -47.3°
